ALSAT 1 1 27559U 02054A 10066.12427063 .00000035 00000-0 14017-4 0 2467 2 27559 097.9043 298.1335 0022298 236.6718 123.2344 14.69371498388335 NIGERIASAT 1 1 27941U 03042C 10066.11263181 .00000074 00000-0 23237-4 0 3095 2 27941 097.9079 295.5580 0012271 032.9580 327.2384 14.63063326343980 UK-DMC 1 27942U 03042D 10066.14576288 .00000043 00000-0 17120-4 0 3016 2 27942 097.9069 295.3081 0012075 040.4774 319.7335 14.63058870343985 BILSAT 1 1 27943U 03042E 10066.14804122 .00000027 00000-0 14103-4 0 1612 2 27943 097.9044 294.9772 0012348 030.9855 329.2079 14.62938687343970 BEIJING 1 (TSINGHUA) 1 28890U 05043A 10066.10400020 .00000002 00000-0 98896-5 0 391 2 28890 098.0203 313.6778 0014425 239.8640 120.1138 14.60087038232273 HJ-1A 1 33320U 08041A 10065.49133680 .00000064 00000-0 17032-4 0 6556 2 33320 097.9527 142.1621 0024125 320.7931 039.1531 14.75230564 80566 HJ-1B 1 33321U 08041B 10065.72703416 .00000034 00000-0 12683-4 0 6940 2 33321 097.9549 142.4329 0042579 331.2897 028.5979 14.75240721 80586 YAOGAN 4 1 33446U 08061A 10065.79143855 -.00000021 00000-0 42264-5 0 4115 2 33446 097.8778 145.5386 0012553 261.9697 098.0099 14.75510162 67927 YAOGAN 5 1 33456U 08064A 10066.12414157 .00001676 00000-0 69699-4 0 4007 2 33456 097.3452 141.8561 0005352 149.2524 269.1013 15.25149939 68128